DW2144 Weather Reports


Display with metric or nautical units.
time (UTC)temp
F
wind
direction
speed
MPH
gust
MPH
rain 1hr
in
rain 24hr
in
rain mn
in
humidity
%
barometer
mb
20260906100019 50 360 0.0 0.0 0.00 0.00 0.00 86 1012.8
20260906094518 50 360 0.0 0.0 0.00 0.00 0.00 86 1013.0
20260906093032 50 360 0.0 0.0 0.00 0.00 0.00 85 1012.9
20260906091521 51 360 0.0 0.0 0.00 0.00 0.00 85 1013.0
20260906090016 51 360 0.0 0.0 0.00 0.00 0.00 85 1013.0
20260906084512 51 360 0.0 0.0 0.00 0.00 0.00 85 1013.0
20260906083011 52 360 0.0 0.0 0.00 0.00 0.00 85 1012.9
20260906081514 52 360 0.0 0.0 0.00 0.00 0.00 85 1013.0
20260906080007 52 360 0.0 0.0 0.00 0.00 0.00 85 1013.0
20260906074506 53 360 0.0 0.0 0.00 0.00 0.00 84 1013.0
20260906073006 53 360 0.0 0.0 0.00 0.00 0.00 84 1013.0
20260906071502 53 360 0.0 0.0 0.00 0.00 0.00 84 1012.9
20260906070129 54 360 0.0 0.0 0.00 0.00 0.00 83 1012.9
20260906070001 54 360 0.0 0.0 0.00 0.00 0.00 83 1013.0
20260906064559 54 360 0.0 0.0 0.00 0.00 0.00 82 1012.9
20260906063058 54 360 0.0 0.0 0.00 0.00 0.00 82 1012.9
20260906061629 55 360 0.0 0.0 0.00 0.00 0.00 81 1012.8
20260906060057 55 360 0.0 0.0 0.00 0.00 0.00 79 1012.8
20260906054557 56 360 0.0 0.0 0.00 0.00 0.00 79 1012.7
20260906053058 56 360 0.0 0.0 0.00 0.00 0.00 78 1012.7
20260906051556 56 360 0.0 0.0 0.00 0.00 0.00 77 1012.8
20260906050109 57 360 0.0 0.0 0.00 0.00 0.00 75 1012.8
20260906044555 58 360 0.0 0.0 0.00 0.00 0.00 74 1012.8
20260906043107 58 360 0.0 0.0 0.00 0.00 0.00 72 1012.8
20260906041553 59 360 0.0 0.0 0.00 0.00 0.00 70 1012.5
20260906040110 61 360 0.0 0.0 0.00 0.00 0.00 68 1012.4
20260906034552 62 360 0.0 0.0 0.00 0.00 0.00 67 1012.4
20260906033053 63 360 0.0 0.0 0.00 0.00 0.00 65 1012.2
20260906031551 65 360 0.0 0.0 0.00 0.00 0.00 63 1012.1
20260906030052 66 360 0.0 0.0 0.00 0.00 0.00 60 1012.1
20260906024550 68 360 0.0 0.0 0.00 0.00 0.00 59 1012.1
20260906023105 69 360 0.0 0.0 0.00 0.00 0.00 56 1012.0
20260906021549 70 360 0.0 0.0 0.00 0.00 0.00 52 1012.0
20260906020048 72 360 0.0 1.0 0.00 0.00 0.00 49 1012.0
20260906014556 73 360 0.0 0.0 0.00 0.00 0.00 45 1011.9
20260906013046 74 360 0.0 1.0 0.00 0.00 0.00 45 1011.8
20260906011553 74 360 0.0 1.0 0.00 0.00 0.00 42 1011.8
20260906010045 75 360 0.0 2.0 0.00 0.00 0.00 38 1011.8
20260906004544 75 360 0.0 2.0 0.00 0.00 0.00 36 1011.8
20260906003049 75 360 0.0 4.0 0.00 0.00 0.00 35 1011.8
20260906001544 75 335 0.0 3.0 0.00 0.00 0.00 37 1011.8
20260906000043 76 10 0.0 3.0 0.00 0.00 0.00 37 1011.8
20260905234552 76 42 0.0 3.0 0.00 0.00 0.00 36 1011.8
20260905233042 76 49 0.0 3.0 0.00 0.00 0.00 37 1011.8
20260905231540 77 5 0.0 3.0 0.00 0.00 0.00 39 1011.8
20260905230042 77 5 0.0 3.0 0.00 0.00 0.00 37 1011.9
20260905224539 78 32 0.0 3.0 0.00 0.00 0.00 39 1012.1
20260905223038 78 343 0.0 4.0 0.00 0.00 0.00 39 1012.0
20260905221540 78 305 0.0 9.0 0.00 0.00 0.00 40 1012.1
20260905220034 78 355 2.0 6.0 0.00 0.00 0.00 40 1012.3
20260905214534 78 318 0.0 6.0 0.00 0.00 0.00 40 1012.2
20260905213033 79 292 1.0 5.0 0.00 0.00 0.00 33 1012.2
20260905211532 79 360 0.0 1.0 0.00 0.00 0.00 36 1012.3
20260905210028 78 360 0.0 4.0 0.00 0.00 0.00 40 1012.4
20260905204526 78 332 0.0 3.0 0.00 0.00 0.00 42 1012.6
20260905203025 78 5 1.0 4.0 0.00 0.00 0.00 41 1012.6
20260905201522 77 70 0.0 3.0 0.00 0.00 0.00 45 1012.6
20260905200017 76 32 0.0 4.0 0.00 0.00 0.00 45 1012.7
20260905194513 75 62 0.0 4.0 0.00 0.00 0.00 49 1012.8
20260905193009 74 37 0.0 3.0 0.00 0.00 0.00 52 1012.7
20260905191507 72 307 0.0 1.0 0.00 0.00 0.00 56 1013.2
20260905190005 71 307 0.0 4.0 0.00 0.00 0.00 61 1013.3
20260905184603 70 68 0.0 1.0 0.00 0.00 0.00 64 1013.4
20260905183110 68 31 0.0 2.0 0.00 0.00 0.00 69 1013.5
20260905181557 66 31 0.0 1.0 0.00 0.00 0.00 73 1013.5
20260905180045 64 31 0.0 1.0 0.00 0.00 0.00 78 1013.6
20260905174541 62 31 0.0 1.0 0.00 0.00 0.00 82 1013.6
20260905173036 60 31 0.0 0.0 0.00 0.00 0.00 84 1013.7
20260905171536 59 31 0.0 0.0 0.00 0.00 0.00 85 1013.7
20260905170030 58 31 0.0 0.0 0.00 0.00 0.00 86 1013.8
20260905164533 56 31 0.0 1.0 0.00 0.00 0.00 84 1013.7
20260905163022 55 31 0.0 0.0 0.00 0.00 0.00 80 1013.7
20260905161521 53 31 0.0 0.0 0.00 0.00 0.00 79 1013.8
20260905160019 52 31 0.0 0.0 0.00 0.00 0.00 80 1013.8
20260905154518 51 31 0.0 0.0 0.00 0.00 0.00 80 1013.8
20260905153017 49 31 0.0 0.0 0.00 0.00 0.00 83 1013.8
20260905151516 48 31 0.0 0.0 0.00 0.00 0.00 86 1013.7
20260905150018 48 31 0.0 0.0 0.00 0.00 0.00 86 1013.5
20260905144513 47 31 0.0 0.0 0.00 0.00 0.00 86 1013.5
20260905143020 47 31 0.0 0.0 0.00 0.00 0.00 87 1013.6
20260905141514 47 31 0.0 0.0 0.00 0.00 0.00 87 1013.4
20260905140011 47 31 0.0 0.0 0.00 0.00 0.00 87 1013.4
20260905134511 48 31 0.0 0.0 0.00 0.00 0.00 87 1013.2
20260905133007 48 31 0.0 0.0 0.00 0.00 0.00 87 1013.3
20260905131508 48 31 0.0 0.0 0.00 0.00 0.00 87 1013.1
20260905130015 48 31 0.0 0.0 0.00 0.00 0.00 87 1013.0
20260905124504 48 31 0.0 0.0 0.00 0.00 0.00 87 1013.0
20260905123002 49 31 0.0 0.0 0.00 0.00 0.00 87 1012.9
20260905121501 49 31 0.0 0.0 0.00 0.00 0.00 87 1012.9
20260905120112 49 31 0.0 0.0 0.00 0.00 0.00 86 1012.9
20260905114559 49 31 0.0 0.0 0.00 0.00 0.00 87 1013.0
20260905113057 49 31 0.0 0.0 0.00 0.00 0.00 86 1013.0
20260905111610 50 31 0.0 0.0 0.00 0.00 0.00 86 1013.0
20260905110058 50 31 0.0 0.0 0.00 0.00 0.00 87 1013.0
20260905104553 50 31 0.0 0.0 0.00 0.00 0.00 86 1012.9
20260905103053 50 31 0.0 0.0 0.00 0.00 0.00 86 1013.0
20260905101552 51 31 0.0 0.0 0.00 0.00 0.00 86 1013.0